OpenBCM V1.13 (Linux)

Packet Radio Mailbox

DB0FHN

[JN59NK Nuernberg]

 Login: GUEST





  
LU9DCE > KEP      03.08.19 20:34l 248 Lines 12266 Bytes #999 (0) @ WW
BID : 29406_LU9DCE
Read: DJ6UX GUEST
Subj: TLE 03 08
Path: DB0FHN<DB0BLO<DB0ERF<IZ3LSV<I3XTY<I0OJJ<VE2PKT<N3HYM<LU9DCE
Sent: 190803/1800Z 29406@LU9DCE.TOR.BA.ARG.SOAM LinBPQ6.0.17

>From lu9dce%lu9dce.tor.ba.arg.soam@i0ojj.ampr.org Sat Aug  3 20:04:04 2019
Received: from i0ojj.ampr.org by i0ojj.ampr.org (JNOS2.0k.3b) with SMTP
	id AA24011 ; Sat, 03 Aug 2019 20:04:04 +0200
Message-Id: <29406_LU9DCE@ve2pkt.bbs>
>From: lu9dce@lu9dce.tor.ba.arg.soam
X-JNOS-User-Port: Telnet   (ve2pkt @ 144.172.216.109)  -> Sending message

            __    _  _  ___  ____   ___  ____    ____  ____  ____
           (  )  / )( \/ _ \(    \ / __)(  __)  (  _ \(  _ \/ ___)
           / (_/\) \/ (\__  )) D (( (__  ) _)    ) _ ( ) _ (\___ \
           \____/\____/(___/(____/ \___)(____)  (____/(____/(____/
               ESTACION DE PACKET RADIO - BUENOS AIRES (GF05OM)
                   BOLETINES INFORMATIVOS PROGRAMADOS (BIP)
                  SLACKWARE LINUX - HELLOCODELINUX@GMAIL.COM
                          https://slacko.home.blog
+----------------------------------------------------------------------------+
OSCAR 7
1  7530U 74089B   19214.87176101 -.00000050 +00000-0 -28466-4 0  9998
2  7530 101.7470 182.0758 0011706 260.3409 153.7300 12.53639040045941
OSCAR 11 (UoSAT 2)
1 14781U 84021B   19215.51100998  .00000047  00000-0  11930-4 0  9996
2 14781  97.6089 238.0572 0008961 159.7159 200.4414 14.83098281905553
OSCAR 19 (LUSAT)
1 20442U 90005G   19214.84723700 -.00000023 +00000-0 +79127-5 0  9991
2 20442 098.6501 156.7766 0012228 021.7250 338.4450 14.32929616542846
EYESAT A
1 22825U 93061C   19213.50890438 -.00000016  00000-0  11945-4 0  9993
2 22825  98.9054 203.1504 0007542 226.4587 133.5968 14.30063375348218
ITAMSAT
1 22826U 93061D   19214.89937265 -.00000014 +00000-0 +12362-4 0  9999
2 22826 098.8995 204.5588 0008282 210.1359 149.9347 14.30397221348366
RADIO ROSTO
1 23439U 94085A   19215.19167835 -.00000041  00000-0  37461-4 0  9996
2 23439  64.8178  42.5445 0146142 104.3721 257.3474 11.27568691 13188
JAS 2
1 24278U 96046B   19214.87868398 -.00000041 +00000-0 -89094-5 0  9994
2 24278 098.5436 002.1684 0351265 122.7731 240.7769 13.53093078133669
TECHSAT 1B
1 25397U 98043D   19215.16151388 -.00000023  00000-0  89804-5 0  9991
2 25397  98.6900 154.7591 0000134 254.4411 105.6753 14.23668345 94340
ISS (ZARYA)
1 25544U 98067A   19215.52151620 -.00000996  00000-0 -89846-5 0  9996
2 25544  51.6449 126.4279 0006402 211.5675 132.2698 15.51019028182599
PCSAT
1 26931U 01043C   19215.50422081 -.00000033  00000-0  19188-4 0  9997
2 26931  67.0495 245.4620 0007381 275.5569  84.4690 14.30548422931529
SAUDISAT 1C
1 27607U 02058C   19214.54901536 -.00000037 +00000-0 +15709-4 0  9994
2 27607 064.5545 272.4514 0079684 247.8935 111.3694 14.75562029893523
CUTE-1
1 27844U 03031E   19214.89064572 +.00000019 +00000-0 +28495-4 0  9992
2 27844 098.6837 222.4278 0008598 259.2754 100.7456 14.22187676834674
CUBESAT XI 4
1 27848U 03031J   19214.54378854  .00000012  00000-0  25291-4 0  9993
2 27848  98.6915 222.5958 0008491 273.7109  86.3098 14.21781779834515
MOZHAYETS 4
1 27939U 03042A   19215.34414449  .00000074  00000-0  21924-4 0  9993
2 27939  98.0472 350.2843 0011725 284.3472  75.6444 14.66793206847231
CUBESAT XI 5
1 28895U 05043F   19215.10594731  .00000067  00000-0  21726-4 0  9997
2 28895  97.9653 356.2956 0016273 203.8328 156.2123 14.63679042734123
CUTE-1.7+APD II
1 32785U 08021C   19215.53744046  .00000129  00000-0  19465-4 0  9998
2 32785  97.5506 213.0920 0014606 108.6881 251.5924 14.88326436610500
DELFI C3
1 32789U 08021G   19214.70319065 +.00000535 +00000-0 +39688-4 0  9999
2 32789 097.4612 263.0038 0011394 339.0303 021.0456 15.07024468613646
SEEDS
1 32791U 08021J   19215.00887328  .00000178  00000-0  23411-4 0  9998
2 32791  97.5283 218.6071 0015059  87.4715 272.8228 14.90843163610866
YUBELEINY
1 32953U 08025A   19215.03751226  .00000020  00000-0  75656-4 0  9996
2 32953  82.5035 116.5706 0020255  31.8050 328.4244 12.43090743507949
PRISM (HITOMI)
1 33493U 09002B   19214.85705168 +.00000501 +00000-0 +49399-4 0  9994
2 33493 098.1203 137.5249 0015959 038.0968 322.1378 14.96685298571895
KKS-1 (KISEKI)
1 33499U 09002H   19214.90852702 +.00000053 +00000-0 +15839-4 0  9997
2 33499 098.3481 055.0521 0010404 065.9860 294.2436 14.75451903565469
SWISSCUBE
1 35932U 09051B   19215.15016924  .00000069  00000-0  26547-4 0  9996
2 35932  98.5922  22.4633 0008216  34.5061 325.6668 14.56296732523398
BEESAT
1 35933U 09051C   19214.46335041  .00000059  00000-0  24239-4 0  9999
2 35933  98.5945  23.5343 0006705  50.0561 310.1224 14.56384319523401
ITUPSAT 1
1 35935U 09051E   19214.89057495 +.00000016 +00000-0 +14934-4 0  9996
2 35935 098.6056 024.2092 0008913 044.2816 315.9092 14.55542587523180
XIWANG-1 (HOPE-1)
1 36122U 09072B   19214.73048884 -.00000021 +00000-0 +56771-4 0  9995
2 36122 100.0739 214.9941 0006804 242.3615 117.6808 13.16350541462807
TISAT 1
1 36799U 10035E   19215.11227456  .00000320  00000-0  38418-4 0  9992
2 36799  98.1612   8.7849 0011032 300.2496  59.7629 14.91126479491534
JUGNU
1 37839U 11058B   19214.88204262 +.00000285 +00000-0 +10344-4 0  9995
2 37839 019.9624 060.7357 0018919 105.3415 011.2222 14.12654745403543
SRMSAT
1 37841U 11058D   19214.91797060 +.00000278 +00000-0 +75797-5 0  9991
2 37841 019.9722 118.2277 0011759 333.8168 105.4010 14.10635693402991
M-CUBED/EXP-1 PRIME
1 37855U 11061F   19214.72638308 +.00000783 +00000-0 +47274-4 0  9997
2 37855 101.7106 133.4387 0173223 303.3818 055.0921 15.05510267423080
HORYU 2
1 38340U 12025D   19214.66511344 +.00000089 +00000-0 +20975-4 0  9999
2 38340 098.3261 254.5980 0011053 347.7814 012.3124 14.75733092377388
STRAND 1
1 39090U 13009E   19214.61750110 -.00000007 +00000-0 +12723-4 0  9999
2 39090 098.4850 059.8141 0009667 148.8347 211.3413 14.35091539336814
SOMP
1 39134U 13015E   19214.55484884 +.00000486 +00000-0 +31589-4 0  9991
2 39134 064.8616 235.0832 0033734 295.9633 063.8020 15.20221860347036
BEESAT 3
1 39135U 13015F   19215.47926381  .00000367  00000-0  28057-4 0  9991
2 39135  64.8684 251.0322 0027589 311.7353  48.1414 15.17523460347198
BEESAT 2
1 39136U 13015G   19214.61058086 +.00000129 +00000-0 +16547-4 0  9992
2 39136 064.8686 257.7891 0021406 300.6702 059.2314 15.16945774346592
CUBEBUG 1
1 39153U 13018D   19214.84074718  .00000087  00000-0  18221-4 0  9993
2 39153  97.9802 312.7155 0018074  55.4559 304.8356 14.80579074338496
ZACUBE
1 39417U 13066B   19215.03622781  .00000100  00000-0  19101-4 0  9994
2 39417  97.5619 225.9894 0057481 244.7141 114.8110 14.81130257307750
TRITON 1
1 39427U 13066M   19214.92368198 +.00000162 +00000-0 +33743-4 0  9997
2 39427 097.6794 189.5137 0114467 021.3929 339.2006 14.67858065304787
GOMX 1
1 39430U 13066Q   19215.22150646  .00000097  00000-0  26088-4 0  9993
2 39430  97.7498 168.7833 0152324 110.4223 251.3414 14.59265511303242
HUMSAT D
1 39433U 13066T   19214.67590065  .00000448  00000-0  48884-4 0  9995
2 39433  97.5505 260.3366 0031683 148.2266 212.0874 14.92216942309782
CUBEBUG 2
1 39440U 13066AA  19214.90470965 +.00000091 +00000-0 +19921-4 0  9999
2 39440 097.6034 210.6752 0078848 298.7039 060.6262 14.75868416305445
FUNCUBE 1
1 39444U 13066AE  19214.60662012  .00000150  00000-0  24871-4 0  9992
2 39444  97.5599 227.5733 0056641 239.6568 119.9037 14.81951863306588
UWE-3
1 39446U 13066AG  19215.50824493  .00000114  00000-0  22059-4 0  9993
2 39446  97.5817 218.3164 0068414 270.6263  88.7111 14.78403243306033
SPROUT
1 39770U 14029E   19215.24369078  .00000188  00000-0  26871-4 0  9994
2 39770  97.8860 318.2452 0008119 302.3802  57.6681 14.87374126281601
UNISAT 6
1 40012U 14033C   19214.68308250 +.00000097 +00000-0 +22036-4 0  9990
2 40012 097.7521 079.3437 0057314 313.8794 045.7689 14.73990564275313
DUCHIFAT 1
1 40021U 14033M   19214.85445224 +.00000187 +00000-0 +24940-4 0  9998
2 40021 097.9231 139.5979 0011348 261.2217 098.7716 14.90651294278276
QB50P1
1 40025U 14033R   19214.72595644 +.00000178 +00000-0 +24926-4 0  9994
2 40025 097.9043 134.3367 0010978 272.3530 087.6430 14.88959866277513
CHUBUSAT 1
1 40300U 14070C   19215.14701878  .00000266  00000-0  14569-4 0  9996
2 40300  97.3244 288.1760 0018698 256.6617 160.4730 15.22118615262930
NUDT-PHONESAT
1 40900U 15049B   19214.78450685  .00001174  00000-0  53013-4 0  9991
2 40900  97.4367 223.6760 0013818  33.1358  52.8261 15.22889246214526
ZDPS 2A
1 40901U 15049C   19214.83589539 +.00000345 +00000-0 +20414-4 0  9997
2 40901 097.4591 220.0060 0014798 049.7944 028.2282 15.17765762214083
ZDPS 2B
1 40902U 15049D   19215.53247586  .00000884  00000-0  47239-4 0  9991
2 40902  97.4541 218.1600 0014889  45.3903  68.8542 15.17599981214161
XW-2A
1 40903U 15049E   19215.53925568  .00001286  00000-0  32177-4 0  9997
2 40903  97.3347 258.5567 0013116 346.5167 148.1872 15.41956568217318
KAITUO 1A
1 40904U 15049F   19215.56375353  .00000101  00000-0  88520-5 0  9991
2 40904  97.4668 216.7865 0016092  52.0962  62.5831 15.15384791213944
OBJECT G
1 40905U 15049G   19215.07665051  .00000220  00000-0  15543-4 0  9991
2 40905  97.4710 213.8141 0016966  48.9542  37.3403 15.14311045213740
XW-2C
1 40906U 15049H   19215.42749443  .00000329  00000-0  20735-4 0  9998
2 40906  97.4682 216.7482 0016099  44.4306  93.3057 15.15703950213923
XW-2D
1 40907U 15049J   19215.05271227  .00000571  00000-0  33240-4 0  9992
2 40907  97.4659 216.0579 0015479  43.5638   3.2962 15.15895892213884
LILACSAT 2
1 40908U 15049K   19214.87130784  .00000395  00000-0  25426-4 0  9995
2 40908  97.4794 214.6768 0017280  49.5879  34.5803 15.13820625213649
XW-2F
1 40910U 15049M   19215.23752637  .00000500  00000-0  28363-4 0  9997
2 40910  97.4622 218.2932 0015784  36.1638  21.6008 15.17342465213927
XW-2B
1 40911U 15049N   19215.49697506  .00000275  00000-0  17819-4 0  9992
2 40911  97.4672 217.1512 0015346  43.1505  76.9666 15.15823547213847
